| time (UTC) | temp F | wind direction | speed MPH | gust MPH | rain 1hr in | rain 24hr in | rain mn in | humidity % | barometer mb |
| 20260505015035 | 60 | 232 | 1.0 | 4.0 | 0.00 | 0.00 | 0.00 | 58 | 1008.6 |
| 20260505013532 | 61 | 193 | 0.0 | 2.0 | 0.00 | 0.00 | 0.00 | 56 | 1008.6 |
| 20260505012039 | 61 | 239 | 0.0 | 2.0 | 0.00 | 0.00 | 0.00 | 56 | 1008.5 |
| 20260505010542 | 62 | 248 | 1.0 | 6.0 | 0.00 | 0.00 | 0.00 | 54 | 1008.5 |
| 20260505005027 | 62 | 280 | 0.0 | 4.0 | 0.00 | 0.00 | 0.00 | 54 | 1008.2 |
| 20260505003538 | 63 | 267 | 1.0 | 5.0 | 0.00 | 0.00 | 0.00 | 53 | 1008.0 |
| 20260505002029 | 65 | 43 | 2.0 | 6.0 | 0.00 | 0.00 | 0.00 | 51 | 1008.0 |
| 20260505000539 | 66 | 250 | 2.0 | 5.0 | 0.00 | 0.00 | 0.00 | 49 | 1007.9 |
| 20260504235040 | 66 | 263 | 3.0 | 6.0 | 0.00 | 0.00 | 0.00 | 48 | 1007.8 |
| 20260504233539 | 67 | 235 | 4.0 | 9.0 | 0.00 | 0.00 | 0.00 | 47 | 1007.6 |
| 20260504232028 | 68 | 252 | 1.0 | 5.0 | 0.00 | 0.00 | 0.00 | 46 | 1007.4 |
| 20260504230549 | 69 | 241 | 3.0 | 8.0 | 0.00 | 0.00 | 0.00 | 46 | 1007.2 |
| 20260504225044 | 70 | 245 | 1.0 | 10.0 | 0.00 | 0.00 | 0.00 | 42 | 1007.2 |
| 20260504223543 | 70 | 26 | 2.0 | 5.0 | 0.00 | 0.00 | 0.00 | 42 | 1007.2 |
| 20260504222038 | 71 | 39 | 4.0 | 14.0 | 0.00 | 0.00 | 0.00 | 41 | 1007.2 |
| 20260504220536 | 71 | 265 | 2.0 | 6.0 | 0.00 | 0.00 | 0.00 | 40 | 1007.3 |
| 20260504215030 | 71 | 262 | 3.0 | 9.0 | 0.00 | 0.00 | 0.00 | 39 | 1007.3 |
| 20260504213542 | 71 | 271 | 4.0 | 8.0 | 0.00 | 0.00 | 0.00 | 38 | 1007.4 |
| 20260504212040 | 71 | 247 | 4.0 | 10.0 | 0.00 | 0.00 | 0.00 | 40 | 1007.4 |
| 20260504210538 | 71 | 246 | 4.0 | 9.0 | 0.00 | 0.00 | 0.00 | 40 | 1007.5 |
| 20260504205054 | 71 | 278 | 4.0 | 15.0 | 0.00 | 0.00 | 0.00 | 39 | 1007.5 |
| 20260504203549 | 71 | 249 | 6.0 | 10.0 | 0.00 | 0.00 | 0.00 | 39 | 1007.8 |
| 20260504202045 | 71 | 189 | 3.0 | 11.0 | 0.00 | 0.00 | 0.00 | 40 | 1007.8 |
| 20260504200546 | 72 | 263 | 3.0 | 11.0 | 0.00 | 0.00 | 0.00 | 40 | 1007.9 |
| 20260504195041 | 72 | 207 | 5.0 | 14.0 | 0.00 | 0.00 | 0.00 | 40 | 1008.0 |
| 20260504193545 | 71 | 220 | 3.0 | 11.0 | 0.00 | 0.00 | 0.00 | 38 | 1008.2 |
| 20260504192044 | 71 | 249 | 6.0 | 11.0 | 0.00 | 0.00 | 0.00 | 38 | 1008.3 |
| 20260504190540 | 71 | 27 | 4.0 | 9.0 | 0.00 | 0.00 | 0.00 | 39 | 1008.5 |
| 20260504185036 | 71 | 294 | 3.0 | 10.0 | 0.00 | 0.00 | 0.00 | 40 | 1008.6 |
| 20260504183529 | 70 | 234 | 4.0 | 9.0 | 0.00 | 0.00 | 0.00 | 42 | 1008.9 |
| 20260504182053 | 70 | 11 | 3.0 | 7.0 | 0.00 | 0.00 | 0.00 | 39 | 1009.0 |
| 20260504180532 | 70 | 252 | 3.0 | 8.0 | 0.00 | 0.00 | 0.00 | 41 | 1009.1 |
| 20260504175105 | 70 | 256 | 7.0 | 14.0 | 0.00 | 0.00 | 0.00 | 39 | 1009.5 |
| 20260504173558 | 70 | 267 | 6.0 | 16.0 | 0.00 | 0.00 | 0.00 | 43 | 1009.6 |
| 20260504172051 | 70 | 212 | 5.0 | 12.0 | 0.00 | 0.00 | 0.00 | 39 | 1009.8 |
| 20260504170551 | 69 | 247 | 6.0 | 16.0 | 0.00 | 0.00 | 0.00 | 41 | 1010.2 |
| 20260504150531 | 65 | 232 | 5.0 | 14.0 | 0.00 | 0.00 | 0.00 | 39 | 1011.3 |
| 20260504140530 | 62 | 223 | 2.0 | 7.0 | 0.00 | 0.00 | 0.00 | 47 | 1011.7 |
| 20260504130536 | 57 | 226 | 1.0 | 7.0 | 0.00 | 0.00 | 0.00 | 52 | 1012.2 |
| 20260504110606 | 36 | 131 | 0.0 | 0.0 | 0.00 | 0.00 | 0.00 | 87 | 1012.6 |
| 20260504100547 | 36 | 131 | 0.0 | 0.0 | 0.00 | 0.00 | 0.00 | 85 | 1012.3 |
| 20260504080547 | 38 | 131 | 0.0 | 1.0 | 0.00 | 0.00 | 0.00 | 82 | 1012.4 |
| 20260504050548 | 40 | 131 | 0.0 | 2.0 | 0.00 | 0.00 | 0.00 | 80 | 1012.2 |
| 20260504045058 | 39 | 81 | 0.0 | 2.0 | 0.00 | 0.00 | 0.00 | 80 | 1012.3 |
| 20260504043535 | 39 | 81 | 0.0 | 2.0 | 0.00 | 0.00 | 0.00 | 80 | 1012.3 |
| 20260504042027 | 40 | 72 | 0.0 | 1.0 | 0.00 | 0.00 | 0.00 | 80 | 1012.2 |
| 20260504040527 | 40 | 72 | 0.0 | 0.0 | 0.00 | 0.00 | 0.00 | 79 | 1011.9 |
| 20260504035041 | 40 | 72 | 0.0 | 1.0 | 0.00 | 0.00 | 0.00 | 79 | 1011.8 |
| 20260504033538 | 41 | 36 | 0.0 | 0.0 | 0.00 | 0.00 | 0.00 | 78 | 1011.6 |
| 20260504032029 | 41 | 36 | 0.0 | 0.0 | 0.00 | 0.00 | 0.00 | 76 | 1011.6 |
| 20260504030554 | 42 | 36 | 0.0 | 0.0 | 0.00 | 0.00 | 0.00 | 75 | 1011.6 |
| 20260504025044 | 43 | 36 | 0.0 | 0.0 | 0.00 | 0.00 | 0.00 | 74 | 1011.6 |
| 20260504023559 | 43 | 36 | 0.0 | 0.0 | 0.00 | 0.00 | 0.00 | 72 | 1011.6 |
| 20260504022031 | 44 | 36 | 0.0 | 0.0 | 0.00 | 0.00 | 0.00 | 70 | 1011.7 |
| 20260504020531 | 45 | 36 | 0.0 | 0.0 | 0.00 | 0.00 | 0.00 | 69 | 1011.7 |